Location: Chippewa Lake
(41.0698°N, 81.9010°W)
Time: 02:08:37
(UTC+00:00)

S3M - Pass Details

Date: 09 May 2021
Orbit: 948 x 1005 km, 83.0° (Epoch: 24 June)

Event Time Altitude Azimuth Distance (km) Brightness Sun altitude
Rises 01:15:22 0° 166° (SSE) 3,717 6.6 -8.0°
Reaches altitude 10° 01:18:00 10° 160° (SSE) 2,771 5.9 -8.4°
Maximum altitude 01:24:00 45° 90° (E) 1,340 4.4 -9.4°
Drops below altitude 10° 01:29:59 10° 20° (NNE) 2,768 6.6 -10.3°
Sets 01:32:36 0° 14° (NNE) 3,714 7.3 -10.7°
